Torna al catalogo

STARLINK-36674

AttivoComunicazioniSSO
NORAD 67661·PAYLOAD·🇺🇸 United States

Lanciato Feb 2, 2026 da Vandenberg Space Force Base

Loading…

Prossimi Passaggi (prossime 24 ore)

TLE

AggiornatoSource: CelesTrak SupGP

Epoca: Sep 15, 2026, 02:57 UTC

1 67661C 26022P   26258.12340278 -.00035387  00000+0 -10984-2 0  2587
2 67661  97.2840 289.7982 0001383  84.8360 336.7351 15.33458512    13

Traccia STARLINK-36674 in tempo reale con AllMySat

Download on the App Store